Погода Шамары

Погода Шамары : погода сейчас, прогноз погоды и архив. Всё, что Вы хотите узнать о погоде Шамары!

Поиск расширенной информации на нашем сайте:

Другие новости

Новости СМИ2

Главная страница сайта

Новости сайта

03.07.2017

Напоминаем, что на нашем специализированном сайте Метеоцентр.Азия вы можете получить высокодетализированные автоматические прогнозы погоды по пунктам России, СНГ и мира в авиационном формате (включающие направление и скорость ветра, видимость, явления погоды, количество и форму облачности, нижнюю и верхнюю границу облачности).


Погода Шамары - сегодня

Время (UTC), дата Ветер
(°,м/с) 
Видим.   Явления Облачность Т
(°С)
Тd
(°С)
f(%) Тe
(°С)
Pmin
(гПа)
dP
(гПа)
Po
(мм)
O2
(г/м3)
Тmin Tmax R s Состояние
почвы
03 20.07.17 тихо ()   1000 м  в посл. час туман  9/9 300 м 
[Cu hum]
+13.7 +12.8 94 +19  1015.4  0.4  740  281  +11.3        влажная 
06 20.07.17 020 (С) 20000 м  {туман}  8/8 300 м кучево-дожд. 
[Cb calv]
+21.1 +15.4 70 +31  1014.3  -0.3  739  273           
09 20.07.17 290 (З) 20000 м    8/6 300 м кучево-дожд., средняя 
[Cb calv|Ac cast]
+22.7 +13.6 56 +29  1013.9  -0.3  739  272           
12 20.07.17 360 (С) 20000 м    6/6 300 м кучево-дожд. 
[Cb calv]
+24.3 +13.5 51 +31  1012.7  -1  738  271           
18 20.07.17 тихо ()   20000 м    3/1 300 м средняя, верхняя 
[Cu med, cong|Ac lent|Ci sp]
+17 +14.2 84 +25  1014.1  0.4  739  277           
21 20.07.17 тихо ()   10 км  туман поземный  6/4 300 м кучево-дожд., средняя 
[Cb calv|Ac trans]
+13.7 +12.5 92 +19  1014.9  0.4  739  281           
00 21.07.17 тихо ()   0500 м  туман  3/1 600 м средняя, верхняя 
[Sc diur, vesp|Ac lent|Cs]
+11.4 +10.3 93 +13  1015.5  0.3  739  284           
03 21.07.17 тихо ()   20000 м  в посл. час туман  1/0 верхняя 
[Cs]
+16 +14.4 90 +24  1015.6  0.6  740  279  +11.2        влажная 
06 21.07.17 020 (С) 20000 м  {туман}  3/3 600 м кучево-дожд. 
[Cb calv]
+24.3 +13.4 51 +31  1014.4  -0.3  740  271           
09 21.07.17 210 (ЮЗ) 20000 м    8/6 300 м кучево-дожд., средняя, верхняя 
[Cb calv|Ac trans|Ci fib]
+26.8 +12.4 41 +32  1013.3  -0.9  739  269           
12 21.07.17 220 (ЮЗ) 20000 м    9/8 300 м кучево-дожд., средняя 
[Cb calv|Ac trans]
+27 +12.7 41 +32  1011.9  -1.2  738  268           
18 21.07.17 220 (ЮЗ) 20000 м  зарница  6/3 300 м кучево-дожд., средняя 
[Cb calv|Ac cast]
+17.9 +15 83 +28  1011.8  -0.5  737  276           
21 21.07.17 090 (В) 4000 м  зарница  9/8 300 м кучево-дожд., средняя 
[Cb calv|Ac cast]
+16 +14.6 91 +25  1010.9  -1.1  736  277           
00 22.07.17 230 (ЮЗ) 10 км  слаб. ливневой дождь  10/8 300 м кучево-дожд., средняя 
[Cb calv|Ac As]
+16 +14.2 89 +25  1010.9  737  277           
03 22.07.17 140 (ЮВ) 20000 м  {ливн. осадки}  9/4 300 м кучево-дожд., средняя 
[Cb calv|Ac cast]
+16.9 +15.5 91 +28  1010.1  -0.7  736  276  +14.9      влажная 
06 22.07.17 150 (ЮВ) 20000 м  {ливн. осадки}  9/9 300 м кучево-дожд., средняя 
[Cb calv|Ac cast]
+21.6 +15.6 69 +32  1008.4  -1.2  735  271           
12 22.07.17 220 (ЮЗ) 20000 м  {гроза, ливн. осадки}  9/8 300 м кучево-дожд., средняя 
[Cb calv|Ac lent]
+20.4 +13.5 65 +27  1008.2  -1.3  735  273           
18 22.07.17 220 (ЮЗ) 1{14}  20000 м  {гроза, ливн. осадки}  8/5 300 м кучево-дожд., средняя 
[Cb calv|Ac trans]
+12 +10.8 92 +16  1010.1  0.7  736  282           
21 22.07.17 220 (ЮЗ) 10 км    8/8 300 м кучево-дожд. 
[Cb calv]
+10.7 +9.7 94 +12  1009.8  -0.4  735  283           
00 23.07.17 тихо ()   20000 м    9/8 300 м кучево-дожд., средняя 
[Cb calv|Ac As]
+11.4 +10.3 93 +13  1009.9  0.2  735  282           
03 23.07.17 220 (ЮЗ) 4000 м  дымка  9/8 300 м кучево-дожд., средняя 
[Cb calv|Ac As]
+13.4 +12.2 92 +19  1009.6  0.1  735  280  +10.6      влажная 
06 23.07.17 220 (ЮЗ) 20000 м    9/9 300 м кучево-дожд. 
[Cb calv]
+16.3 +13.6 84 +24  1009.2  735  277           
09 23.07.17 310 (СЗ) 20000 м  в посл. час ливневой дождь  9/9 300 м кучево-дожд., средняя 
[Cb calv|Ac trans]
+17.2 +14.3 83 +26  1009.8  0.6  736  276           
12 23.07.17 270 (З) 20000 м  {ливн. осадки}  9/9 300 м кучево-дожд. 
[Cb calv]
+19 +13.9 72 +27  1009.4  -0.2  736  274           
18 23.07.17 260 (З) 0500 м  туман{ливн. осадки}  3/1 300 м средняя 
[Cu hum|Ac lent]
+14.2 +12.9 92 +21  1009.6  -0.4  735  279           
Время (UTC), дата Ветер
(°,м/с) 
Видим.   Явления Облачность Т
(°С)
Тd
(°С)
f(%) Тe
(°С)
Pmin
(гПа)
dP
(гПа)
Po
(мм)
O2
(г/м3)
Тmin Tmax R s Состояние
почвы

Для получения пояснительной информации подведите курсор к названию столбца.

ПОГОДА Шамары - архив

Всё, что Вы хотите узнать о погоде Шамары - удобно и подробно!

Выберите нужную дату (начиная с 1 января 2015* года) и нажмите кнопку "Найти".
Будут отображены архивные сводки погоды по пункту Шамары, начиная с указанной даты.


Отображать данные в формате CSV (для использования в таблицах Excel)


Внимание! Наш архив погоды предназначен исключительно для личного некоммерческого использования в познавательных целях. Если Вам необходимы официальные справки о состоянии погоды (для производственных, юридических, коммерческих и т.п. целей), обращайтесь в органы Росгидромета.

*Примечание: данная дата относится к архиву по метеостанциям СССР (Россия, СНГ, Балтия).
Архив по метеостанциям Зарубежной Европы и Азии (кроме Китая) хранится 10 дней, по другим регионам земного шара (Китай, Африка, Америка, Австралия, Океания) - 1 день.

Шамары - район местоположения метеостанции


Название, широта, долгота, высота метеостанции:
Шамары 57.3°ш. 58.2°д. 244 м над ур. моря [Российская Федерация]

Дополнительная информация

В oтличие oт бoльшинства пoгoдных сайтoв мы публикуем пoдрoбную метеoинфoрмацию в детальнoм прoфессиoнальнoм фoрмате.

Характеристики температуры и влажнoсти вoздуха измеряются на высoте 2 м в тени вдали oт зданий и деревьев.
Скoрoсть ветра измеряется на высoте 10 м (на урoвне рoста челoвека скoрoсть ветра ниже в 1.5-2 раза). Если метеoстанция нахoдится в гoрoде или в лесу, тo скoрoсть ветра занижена на 2-4 м/с пo сравнению с oткрытым местoм. Скoрoсть ветра над акватoриями крупных рек и oзёр, а также на вершинах хoлмoв на 2-5 м/с выше, чем в oбычных услoвиях.
Атмoсфернoе давление в разных тoчках местнoсти мoжет значительнo oтличаться oт давления на метеoстанции, в зависимoсти oт услoвий рельефа (при пoдъёме на 10 м давление пoнижается примернo на 1 мм рт.ст.).